Regional Weather Roundup
Issued by NWS

Home | Current Version | Previous Version | Text Only | Print | Product List | Glossary Off
Versions: 1 2 3 4 5 6 7 8 9 10 11 12 13 14 15 16 17 18 19 20 21 22 23 24 25 26 27 28 29 30 31 32 33 34 35 36 37 38 39 40 41 42 43 44 45 46 47 48 49 50

000
ASUS43 KLOT 311800
RWRIL

ILLINOIS REGIONAL WEATHER ROUNDUP
NATIONAL WEATHER SERVICE CHICAGO/ROMEOVILLE IL
100 PM CDT FRI OCT 31 2014

NOTE: "FAIR" INDICATES FEW OR NO CLOUDS BELOW 12,000 FEET WITH NO
SIGNIFICANT WEATHER AND/OR OBSTRUCTIONS TO VISIBILITY.

* THESE STATIONS ARE NOT UNDER NWS QUALITY CONTROL. THEY ALSO MAY NOT
  REPORT WEATHER SUCH AS PRECIPITATION OR FOG.

ILZ001-002-007-009-015-016-024-311900-
NORTHWEST ILLINOIS

CITY           SKY/WX    TMP DP  RH WIND       PRES   REMARKS
MOLINE         MOSUNNY   42  20  41 N18G26    30.33F
6HR MIN TEMP:  33; 6HR MAX TEMP:  43;

STERLING*      PTSUNNY   43  21  42 N20G36    30.30S
SAVANNA*       MOSUNNY   43  17  35 N22G29    30.32S
$$

ILZ003-004-008-010-011-017-018-311900-
NORTH CENTRAL ILLINOIS

CITY           SKY/WX    TMP DP  RH WIND       PRES   REMARKS
ROCKFORD       PTSUNNY   39  20  46 N26G38    30.30R WCI  28
6HR MIN TEMP:  34; 6HR MAX TEMP:  40; 6HR PCP: TRACE;

FREEPORT*      PTSUNNY   39  20  47 N17G31    30.33S WCI  30
ROCHELLE*      PTSUNNY   39  21  48 N25G38    30.26F WCI  28
DE KALB*       CLOUDY    37  21  53 N26G41    30.23S WCI  25
$$

ILZ005-006-012>014-019>023-311900-
NORTHEAST ILLINOIS

CITY           SKY/WX    TMP DP  RH WIND       PRES   REMARKS
CHICAGO-OHARE  PTSUNNY   41  24  51 N32G43    30.15S
6HR MIN TEMP:  33; 6HR MAX TEMP:  41; 6HR PCP:  0.02;

CHICAGO-MIDWAY FLURRIES  42  25  50 NW37G48   30.13S
6HR MIN TEMP:  37; 6HR MAX TEMP:  42; 6HR PCP: TRACE;

AURORA         PTSUNNY   41  23  48 N31G44    30.19F
6HR MIN TEMP:  34; 6HR MAX TEMP:  41; 6HR PCP: TRACE;

LANSING*       LGT SNOW  36  29  78 N23G35    30.10S WCI  24
WAUKEGAN       CLOUDY    37  24  59 N26G44    30.16S WCI  25
6HR MIN TEMP:  32; 6HR MAX TEMP:  38; 6HR PCP: TRACE;

DUPAGE AIRPORT CLOUDY    41  22  46 N29G43    30.18S
6HR MIN TEMP:  34; 6HR MAX TEMP:  41; 6HR PCP: TRACE;

WHEELING       CLOUDY    41  24  51 N22G37    30.18S
6HR MIN TEMP:  34; 6HR MAX TEMP:  41; 6HR PCP:  0.01;

MORRIS*        PTSUNNY   42  26  53 N17G31    30.18F
NORTHERLY ISL    N/A     39  32  76 NW24        N/A  WCI  28
$$

LMZ740>746-311900-
SOUTHERN LAKE MICHIGAN

STATION/POSITION SKY/WX   TEMP    WIND        PRES    VSBY  WAVE
                          AIR SEA DIR/SP/G                  HT/PER
                          (F)     (DEG/KT/KT) (MB)    (MI)  (FT/S)
SOUTHERN BUOY              41 50  350/ 37/ 47 1017.8R        19/11
WAUKEGAN HARBOR            38     340/ 31/ 39   N/A
HARRISON CRIB              38     330/ 40/ 48   N/A
BURNHAM HARBOR             39     310/ 22/ 28   N/A
CALUMET HARBOR             36     310/ 15/ 24 1018.1F
MICHIGAN CITY              41     340/ 46/ 53   N/A
$$

ILZ025>027-034>036-040-047-049-050-058-095>099-311900-
WEST-CENTRAL ILLINOIS

CITY           SKY/WX    TMP DP  RH WIND       PRES   REMARKS
QUINCY         SUNNY     42  22  44 N17G30    30.35F
GALESBURG*     MOSUNNY   42  23  45 N24G30    30.32S
MACOMB*        MOSUNNY   43  22  43 N22G38    30.35S
$$

ILZ028>032-037-038-041>044-048-051>054-059>061-311900-
CENTRAL ILLINOIS

CITY           SKY/WX    TMP DP  RH WIND       PRES   REMARKS
PONTIAC        PTSUNNY   42  25  51 N28G40    30.21R
DECATUR        PTSUNNY   43  27  53 N29G37    30.20S
PEORIA         MOSUNNY   44  21  40 N16G29    30.26F
6HR MIN TEMP:  36; 6HR MAX TEMP:  45;

LINCOLN*       MOSUNNY   45  25  45 N21G26    30.23F
SPRINGFIELD    MOSUNNY   44  24  45 NW21G35   30.26F
6HR MIN TEMP:  38; 6HR MAX TEMP:  45;

TAYLORVILLE    NOT AVBL
$$

ILZ033-039-045-046-055>057-062-063-311900-
EAST-CENTRAL ILLINOIS

CITY           SKY/WX    TMP DP  RH WIND       PRES   REMARKS
CHAMPAIGN      CLOUDY    41  27  57 NW26G38   30.15S
MATTOON        CLOUDY    40  28  62 N29G37    30.15F
$$

ILZ079-100>102-311900-
SOUTHWEST ILLINOIS

CITY           SKY/WX    TMP DP  RH WIND       PRES   REMARKS
ALTON          PTSUNNY   43  19  39 NW15G24   30.29S
BELLEVILLE     MOSUNNY   45  27  49 NW20G33   30.26S
CAHOKIA*       MOSUNNY   45  27  49 N30       30.29F
SPARTA*        PTSUNNY   44  27  51 NW14G25   30.25S
$$

ILZ064>066-069>071-074>076-080>082-084>086-088>090-092>094-311900-
SOUTH-CENTRAL ILLINOIS

CITY           SKY/WX    TMP DP  RH WIND       PRES   REMARKS
CARBONDALE     MOSUNNY   46  23  40 N26G40    30.21R
6HR MIN TEMP:  45; 6HR MAX TEMP:  49; 6HR PCP: TRACE;

MARION         MOSUNNY   46  25  42 N21G26    30.20R
MT. VERNON     PTSUNNY   45  27  49 N9G21     30.20S
SALEM*         PTSUNNY   44  30  57 N21G33    30.21F
METROPOLIS*    MOSUNNY   49  28  45 NW23G33   30.16R
$$

ILZ067-068-072-073-078-083-087-091-311900-
SOUTHEAST ILLINOIS

CITY           SKY/WX    TMP DP  RH WIND       PRES   REMARKS
LAWRENCEVILLE  PTSUNNY   43  29  57 NW22G31   30.12F
FAIRFIELD*     PTSUNNY   43  27  52 NW16G28   30.16S
HARRISBURG*    MOSUNNY   46  23  40 NW21G35   30.18R
ROBINSON*      PTSUNNY   44  32  63 N22G32    30.13S
CARMI*         MOSUNNY   46  28  49 N20G30    30.14S
$$

ABBREVIATIONS USED IN REMARKS
   TC - TEMPERATURE IN CELSIUS
  WCI - WIND CHILL INDEX
   HX - HEAT INDEX
  VSB - VISIBILITY
$$




USA.gov is the U.S. government's official web portal to all federal, state and local government web resources and services.